Learmonth, Australia

5:44 PM AWST on September 20, 2017 (GMT +0800)
Learmonth

Weather History for YPLM - March, 2014

Change the Weather History Date:

Sunday, March 9, 2014

  Actual Average Record
Temperature  
Mean Temperature 89 °F -  
Max Temperature 106 °F 92 °F 106 °F (2014)
Min Temperature 72 °F 70 °F 69 °F (2001)
Cooling Degree Days 24    
Growing Degree Days 39 (Base 50)    
Moisture  
Dew Point 61 °F    
Average Humidity 49    
Maximum Humidity 78    
Minimum Humidity 8    
Precipitation  
Precipitation 0.00 in 0.04 in - ()
Sea Level Pressure  
Sea Level Pressure 29.81 in    
Wind  
Wind Speed 14 mph ()    
Max Wind Speed 22 mph    
Max Gust Speed -    
Visibility 7.8 miles    
Events      
Averages and records for this station are not official NWS values.
T = Trace of Precipitation, MM = Missing Value Source: Averaged Metar Reports

Daily Weather History Graph

Daily Weather History Graph

Search for Another Location

Airport or City:

Trip Planner

Search our weather history database for the weather conditions in past years. The results will help you decide how hot, cold, wet, or windy it might be!

Date:

Astronomy

Mar. 09, 2014 Rise Set
Actual Time 6:23 AM AWST 6:45 PM AWST
Civil Twilight 6:00 AM AWST 7:07 PM AWST
Nautical Twilight 5:34 AM AWST 7:33 PM AWST
Astronomical Twilight 5:07 AM AWST 8:00 PM AWST
Moon 1:32 PM AWST (3/9) No Moon Set
Length of Visible Light 13h 06m
Length of Day
12h 21m
First Quarter, 56% of the Moon is Illuminated
Mar 9
First Quarter
Mar 17
Full
Mar 24
Last Quarter
Mar 31
New
Apr 7
First Quarter

Hourly Weather History & Observations

Time (AWST) Temp. Heat Index Dew Point Humidity Pressure Visibility Wind Dir Wind Speed Gust Speed Precip Events Conditions
12:00 AM 79 °F - 67 °F 58% 29.85 in - SSW 13.8 mph - -  
12:00 AM 78.8 °F - 66.2 °F 65% 29.83 in 6.2 mi SSW 13.8 mph - N/A   Unknown
12:30 AM 77.0 °F - 66.2 °F 69% 29.83 in 6.2 mi SSW 15.0 mph - N/A   Unknown
1:00 AM 77.0 °F - 66.2 °F 69% 29.83 in 6.2 mi SSW 15.0 mph - N/A   Unknown
1:30 AM 77.0 °F - 66.2 °F 69% 29.83 in 6.2 mi SSW 12.7 mph - N/A   Unknown
2:00 AM 76 °F - 66 °F 64% 29.84 in - SSW 12.7 mph - -  
2:00 AM 75.2 °F - 66.2 °F 73% 29.83 in 6.2 mi SSW 12.7 mph - N/A   Unknown
2:30 AM 75.2 °F - 66.2 °F 73% 29.83 in 6.2 mi SSW 10.4 mph - N/A   Unknown
3:00 AM 75 °F - 66 °F 68% 29.83 in - SW 10.4 mph - -  
3:00 AM 75.2 °F - 66.2 °F 73% 29.83 in 6.2 mi SW 10.4 mph - N/A   Unknown
3:30 AM 75.2 °F - 66.2 °F 73% 29.83 in 6.2 mi SW 12.7 mph - N/A   Unknown
4:00 AM 75.2 °F - 66.2 °F 73% 29.80 in 6.2 mi SSW 15.0 mph - N/A   Unknown
4:30 AM 73.4 °F - 66.2 °F 78% 29.83 in 6.2 mi SSW 16.1 mph - N/A   Unknown
5:00 AM 73 °F - 65 °F 68% 29.83 in - SSW 16.1 mph - -  
5:00 AM 73.4 °F - 64.4 °F 73% 29.83 in 6.2 mi SSW 16.1 mph - N/A   Unknown
5:30 AM 73.4 °F - 64.4 °F 73% 29.83 in 6.2 mi SSW 16.1 mph - N/A   Unknown
6:00 AM 72 °F - 64 °F 69% 29.84 in 19 mi SSW 15.0 mph - -   Partly Cloudy
6:00 AM 71.6 °F - 64.4 °F 78% 29.83 in - SSW 15.0 mph - N/A   Clear
6:30 AM 71.6 °F - 64.4 °F 78% 29.83 in - SSW 17.3 mph - N/A   Clear
7:00 AM 73.4 °F - 64.4 °F 73% 29.86 in - SSW 15.0 mph - N/A   Clear
7:30 AM 73.4 °F - 64.4 °F 73% 29.86 in - SSW 15.0 mph - N/A   Clear
8:00 AM 75 °F - 64 °F 59% 29.88 in - SSW 15.0 mph - -  
8:00 AM 75.2 °F - 64.4 °F 69% 29.86 in - SSW 15.0 mph - N/A   Clear
8:30 AM 77.0 °F - 62.6 °F 61% 29.86 in - South 15.0 mph - N/A   Clear
9:00 AM 81 °F - 61 °F 41% 29.88 in 19 mi SSW 15.0 mph - -   Partly Cloudy
9:00 AM 80.6 °F 81.5 °F 60.8 °F 51% 29.89 in - SSW 15.0 mph - N/A   Clear
9:30 AM 84.2 °F 83.8 °F 59.0 °F 42% 29.86 in - South 15.0 mph - N/A   Clear
10:00 AM 87.8 °F 87.1 °F 59.0 °F 38% 29.86 in - South 15.0 mph - N/A   Clear
10:30 AM 89.6 °F 88.1 °F 57.2 °F 33% 29.86 in - South 12.7 mph - N/A   Clear
11:00 AM 92 °F - 57 °F 21% 29.86 in - SSE 12.7 mph - -  
11:00 AM 93.2 °F 91.9 °F 57.2 °F 30% 29.86 in - SSE 12.7 mph - N/A   Clear
11:30 AM 93.2 °F 90.8 °F 53.6 °F 26% 29.83 in - SSE 15.0 mph - N/A   Clear
12:00 PM 94 °F - 55 °F 17% 29.83 in 19 mi SE 13.8 mph - -   Partly Cloudy
12:00 PM 95.0 °F 93.0 °F 55.4 °F 26% 29.83 in - SE 13.8 mph - N/A   Clear
12:30 PM 96.8 °F - 51.8 °F 22% 29.80 in - SSE 15.0 mph - N/A   Clear
1:00 PM 98.6 °F - 51.8 °F 21% 29.80 in - SSE 15.0 mph - N/A   Clear
1:30 PM 100.4 °F - 50.0 °F 18% 29.77 in - SSE 12.7 mph - N/A   Clear
2:00 PM 102 °F - 46 °F 8% 29.77 in - SSE 12.7 mph - -  
2:00 PM 102.2 °F - 46.4 °F 15% 29.77 in - SSE 12.7 mph - N/A   Clear
2:30 PM 104.0 °F - 44.6 °F 13% 29.74 in - SSE 12.7 mph - N/A   Clear
3:00 PM 105 °F - 50 °F 9% 29.75 in 19 mi SSW 13.8 mph - -   Partly Cloudy
3:00 PM 105.8 °F - 50.0 °F 15% 29.74 in - SSW 13.8 mph - N/A   Clear
3:30 PM 104.0 °F - 50.0 °F 16% 29.74 in 6.2 mi SSW 17.3 mph - N/A   Unknown
4:00 PM 102.2 °F 100.4 °F 53.6 °F 20% 29.74 in 6.2 mi SW 17.3 mph - N/A   Unknown
4:30 PM 100.4 °F - 51.8 °F 20% 29.74 in 6.2 mi SW 17.3 mph - N/A   Unknown
5:00 PM 100 °F - 50 °F 11% 29.75 in - SSW 17.3 mph - -  
5:00 PM 100.4 °F - 50.0 °F 18% 29.74 in 6.2 mi SSW 17.3 mph - N/A   Unknown
5:30 PM 96.8 °F 95.1 °F 55.4 °F 25% 29.74 in 6.2 mi SSW 19.6 mph - N/A   Unknown
6:00 PM 93 °F - 59 °F 23% 29.76 in - SW 18.4 mph - -  
6:00 PM 93.2 °F 92.6 °F 59.0 °F 32% 29.74 in 6.2 mi SW 18.4 mph - N/A   Unknown
6:30 PM 89.6 °F 90.1 °F 62.6 °F 40% 29.77 in 6.2 mi SSW 19.6 mph - N/A   Unknown
7:00 PM 86.0 °F 87.3 °F 64.4 °F 48% 29.77 in 6.2 mi SW 18.4 mph - N/A   Unknown
7:30 PM 84.2 °F 86.6 °F 66.2 °F 55% 29.80 in 6.2 mi SW 17.3 mph - N/A   Unknown
8:00 PM 81 °F - 66 °F 52% 29.81 in - SW 18.4 mph - -  
8:00 PM 80.6 °F 82.7 °F 66.2 °F 61% 29.80 in 6.2 mi SW 18.4 mph - N/A   Unknown
8:30 PM 80.6 °F 82.7 °F 66.2 °F 61% 29.80 in 6.2 mi SSW 20.7 mph - N/A   Unknown
9:00 PM 80 °F - 66 °F 54% 29.82 in - SSW 19.6 mph - -  
9:00 PM 80.6 °F 82.7 °F 66.2 °F 61% 29.80 in 6.2 mi SSW 19.6 mph - N/A   Unknown
9:30 PM 78.8 °F - 64.4 °F 61% 29.80 in 6.2 mi SSW 19.6 mph - N/A   Unknown
10:00 PM 78.8 °F - 66.2 °F 65% 29.80 in 6.2 mi SSW 21.9 mph - N/A   Unknown
10:30 PM 78.8 °F - 66.2 °F 65% 29.80 in 6.2 mi SSW 20.7 mph - N/A   Unknown
11:00 PM 78 °F - 66 °F 58% 29.83 in - SSW 18.4 mph - -  
11:00 PM 77.0 °F - 66.2 °F 69% 29.83 in 6.2 mi SSW 18.4 mph - N/A   Unknown
11:30 PM 77.0 °F - 66.2 °F 69% 29.80 in 6.2 mi SSW 18.4 mph - N/A   Unknown